CW3860 Weather Reports


Display with metric or nautical units.
time (UTC)temp
F
wind
direction
speed
MPH
gust
MPH
rain 1hr
in
rain 24hr
in
rain mn
in
humidity
%
barometer
mb
20260507114032 70 91 3.0 5.0 0.00 0.00 0.00 72 1013.5
20260507113532 71 90 2.0 4.0 0.00 0.00 0.00 71 1013.5
20260507113033 71 94 4.0 5.0 0.00 0.00 0.00 71 1013.5
20260507112532 71 98 2.0 5.0 0.00 0.00 0.00 71 1013.4
20260507112032 71 96 2.0 5.0 0.00 0.00 0.00 72 1013.4
20260507111532 70 92 2.0 5.0 0.00 0.00 0.00 73 1013.4
20260507111033 70 94 4.0 4.0 0.00 0.00 0.00 73 1013.4
20260507110533 70 55 1.0 4.0 0.00 0.00 0.00 74 1013.5
20260507110032 71 78 2.0 4.0 0.00 0.00 0.00 74 1013.6
20260507105532 70 11 2.0 5.0 0.00 0.00 0.00 74 1013.7
20260507105032 71 96 4.0 7.0 0.00 0.00 0.00 73 1013.7
20260507104532 71 10 1.0 3.0 0.00 0.00 0.00 73 1013.7
20260507104032 70 98 2.0 3.0 0.00 0.00 0.00 74 1013.8
20260507103533 70 105 2.0 6.0 0.00 0.00 0.00 74 1013.7
20260507103033 70 171 1.0 4.0 0.00 0.00 0.00 76 1013.7
20260507102532 71 105 1.0 3.0 0.00 0.00 0.00 74 1013.7
20260507102032 71 92 2.0 4.0 0.00 0.00 0.00 75 1013.7
20260507101533 71 32 0.0 3.0 0.00 0.00 0.00 74 1013.8
20260507101033 71 42 1.0 3.0 0.00 0.00 0.00 74 1013.8
20260507100533 71 355 1.0 4.0 0.00 0.00 0.00 75 1013.8
20260507100033 70 42 1.0 3.0 0.00 0.00 0.00 75 1013.8
20260507095533 70 92 2.0 6.0 0.00 0.00 0.00 75 1013.7
20260507095032 71 345 1.0 4.0 0.00 0.00 0.00 75 1013.7
20260507094533 70 0 2.0 3.0 0.00 0.00 0.00 74 1013.6
20260507094033 71 33 1.0 2.0 0.00 0.00 0.00 75 1013.7
20260507093533 70 14 1.0 3.0 0.00 0.00 0.00 75 1013.7
20260507093033 70 128 2.0 3.0 0.00 0.00 0.00 74 1013.8
20260507092532 70 29 0.0 4.0 0.00 0.00 0.00 75 1013.8
20260507092033 70 5 1.0 3.0 0.00 0.00 0.00 74 1013.8
20260507091534 70 36 1.0 4.0 0.00 0.00 0.00 74 1013.8
20260507091036 70 159 1.0 4.0 0.00 0.00 0.00 74 1013.7
20260507090533 70 192 2.0 6.0 0.00 0.00 0.00 73 1013.8
20260507090033 70 306 2.0 2.0 0.00 0.00 0.00 74 1013.9
20260507085533 70 24 1.0 6.0 0.00 0.00 0.00 73 1013.9
20260507085033 70 345 3.0 4.0 0.00 0.00 0.00 72 1013.9
20260507084533 70 165 1.0 6.0 0.00 0.00 0.00 71 1013.9
20260507084033 70 169 1.0 4.0 0.00 0.00 0.00 71 1013.8
20260507083533 71 11 4.0 4.0 0.00 0.00 0.00 69 1013.7
20260507083033 70 339 1.0 2.0 0.00 0.00 0.00 71 1013.8
20260507082533 69 351 1.0 5.0 0.00 0.00 0.00 72 1013.7
20260507082033 69 5 1.0 6.0 0.00 0.00 0.00 71 1013.7
20260507081536 68 26 0.0 6.0 0.00 0.00 0.00 73 1013.6
20260507081033 68 355 2.0 3.0 0.00 0.00 0.00 73 1013.5
20260507080533 68 25 2.0 4.0 0.00 0.00 0.00 76 1013.5
20260507080033 68 5 3.0 4.0 0.00 0.00 0.00 77 1013.5
20260507075536 68 342 0.0 2.0 0.00 0.00 0.00 77 1013.4
20260507075033 68 107 0.0 3.0 0.00 0.00 0.00 77 1013.4
20260507074533 69 355 1.0 2.0 0.00 0.00 0.00 76 1013.4
20260507074033 69 348 1.0 4.0 0.00 0.00 0.00 76 1013.4
20260507073533 69 49 1.0 3.0 0.00 0.00 0.00 75 1013.4
20260507073034 70 88 3.0 3.0 0.00 0.00 0.00 74 1013.4
20260507072533 70 112 2.0 4.0 0.00 0.00 0.00 73 1013.4
20260507072033 71 101 1.0 2.0 0.00 0.00 0.00 73 1013.4
20260507071537 71 0 0.0 3.0 0.00 0.00 0.00 74 1013.4
20260507071033 70 23 1.0 3.0 0.00 0.00 0.00 75 1013.5
20260507070534 70 55 1.0 3.0 0.00 0.00 0.00 74 1013.5
20260507070034 70 252 0.0 2.0 0.00 0.00 0.00 76 1013.4
20260507065533 68 97 2.0 2.0 0.00 0.00 0.00 78 1013.3
20260507065036 68 127 0.0 1.0 0.00 0.00 0.00 78 1013.3
20260507064533 68 95 1.0 3.0 0.00 0.00 0.00 78 1013.3
20260507064033 68 101 3.0 3.0 0.00 0.00 0.00 79 1013.2
20260507063533 67 331 0.0 1.0 0.00 0.00 0.00 79 1013.1
20260507063036 67 331 0.0 1.0 0.00 0.00 0.00 79 1013.1
20260507062533 67 330 0.0 2.0 0.00 0.00 0.00 79 1013.2
20260507062033 67 330 1.0 1.0 0.00 0.00 0.00 79 1013.1
20260507061533 67 259 0.0 0.0 0.00 0.00 0.00 79 1013.2
20260507061033 66 259 0.0 1.0 0.00 0.00 0.00 79 1013.2
20260507060533 66 260 0.0 1.0 0.00 0.00 0.00 80 1013.2
20260507060033 66 200 0.0 1.0 0.00 0.00 0.00 79 1013.2
20260507055533 66 200 0.0 2.0 0.00 0.00 0.00 80 1013.1
20260507055036 66 339 0.0 1.0 0.00 0.00 0.00 80 1013.1
20260507054536 66 338 0.0 0.0 0.00 0.00 0.00 80 1013.2
20260507054034 65 339 0.0 1.0 0.00 0.00 0.00 80 1013.1
20260507053533 65 339 0.0 1.0 0.00 0.00 0.00 80 1013.0
20260507053036 65 339 0.0 1.0 0.00 0.00 0.00 80 1012.9
20260507052534 65 338 0.0 1.0 0.00 0.00 0.00 80 1012.9
20260507052033 65 338 0.0 2.0 0.00 0.00 0.00 80 1012.9
20260507051533 65 5 2.0 3.0 0.00 0.00 0.00 81 1012.8
20260507051033 65 330 1.0 4.0 0.00 0.00 0.00 81 1012.8
20260507050533 65 338 0.0 3.0 0.00 0.00 0.00 80 1012.7
20260507050033 65 332 0.0 2.0 0.00 0.00 0.00 80 1012.6
20260507045533 65 321 0.0 3.0 0.00 0.00 0.00 80 1012.4
20260507045033 65 340 1.0 3.0 0.00 0.00 0.00 80 1012.4
20260507044536 65 310 0.0 3.0 0.00 0.00 0.00 80 1012.4
20260507044033 65 12 1.0 2.0 0.00 0.00 0.00 81 1012.3
20260507043533 65 355 1.0 3.0 0.00 0.00 0.00 81 1012.3
20260507043033 65 325 0.0 3.0 0.00 0.00 0.00 81 1012.2
20260507042533 65 332 1.0 4.0 0.00 0.00 0.00 81 1012.2
20260507042033 64 355 1.0 3.0 0.00 0.00 0.00 82 1012.1
20260507041536 64 333 2.0 3.0 0.00 0.00 0.00 82 1012.0
20260507041036 64 309 1.0 3.0 0.00 0.00 0.00 82 1011.9
20260507040533 64 329 1.0 3.0 0.00 0.00 0.00 83 1011.8
20260507040034 64 323 0.0 5.0 0.00 0.00 0.00 83 1011.8
20260507035533 64 280 5.0 6.0 0.00 0.00 0.00 84 1011.7
20260507035033 64 332 1.0 3.0 0.00 0.00 0.00 85 1011.7
20260507034533 64 161 2.0 4.0 0.00 0.00 0.00 86 1011.6
20260507034033 65 335 3.0 4.0 0.00 0.00 0.00 86 1011.6
20260507033533 65 350 1.0 3.0 0.00 0.00 0.00 86 1011.6
20260507033033 65 331 1.0 2.0 0.00 0.00 0.00 86 1011.6
20260507032534 65 347 2.0 3.0 0.00 0.00 0.00 86 1011.6
20260507032033 65 332 0.0 4.0 0.00 0.00 0.00 86 1011.4
20260507031533 65 355 2.0 3.0 0.00 0.00 0.00 86 1011.4
20260507031034 65 355 1.0 4.0 0.00 0.00 0.00 86 1011.4
20260507030534 65 5 1.0 2.0 0.00 0.00 0.00 86 1011.4
20260507030033 65 334 0.0 3.0 0.00 0.00 0.00 85 1011.4
20260507025537 65 327 0.0 3.0 0.00 0.00 0.00 85 1011.3
20260507025033 65 322 1.0 3.0 0.00 0.00 0.00 85 1011.3
20260507024533 65 348 1.0 3.0 0.00 0.00 0.00 84 1011.2
20260507024034 65 337 1.0 3.0 0.00 0.00 0.00 83 1011.1
20260507023534 65 333 1.0 3.0 0.00 0.00 0.00 83 1011.1
20260507023034 65 333 1.0 3.0 0.00 0.00 0.00 82 1011.2
20260507022537 65 346 1.0 3.0 0.00 0.00 0.00 82 1011.1
20260507022034 65 325 1.0 4.0 0.00 0.00 0.00 81 1011.1
20260507021535 65 331 1.0 3.0 0.00 0.00 0.00 79 1011.0
20260507021034 65 290 0.0 3.0 0.00 0.00 0.00 78 1010.9
20260507020531 65 335 2.0 3.0 0.00 0.00 0.00 78 1010.9
20260507020031 65 295 1.0 3.0 0.00 0.00 0.00 78 1010.9
20260507015531 65 349 1.0 3.0 0.00 0.00 0.00 77 1010.9
20260507015031 65 327 1.0 2.0 0.00 0.00 0.00 77 1010.9
20260507014531 65 340 1.0 2.0 0.00 0.00 0.00 77 1010.9
20260507014031 65 340 0.0 2.0 0.00 0.00 0.00 77 1010.9
20260507013531 65 340 1.0 2.0 0.00 0.00 0.00 77 1010.9
20260507013031 65 331 1.0 4.0 0.00 0.00 0.00 77 1010.8
20260507012531 65 346 1.0 3.0 0.00 0.00 0.00 77 1010.8
20260507012031 65 338 0.0 3.0 0.00 0.00 0.00 77 1010.8
20260507011534 65 333 1.0 3.0 0.00 0.00 0.00 77 1010.7
20260507011031 65 350 1.0 3.0 0.00 0.00 0.00 78 1010.6
20260507010531 65 336 1.0 2.0 0.00 0.00 0.00 78 1010.6
20260507010031 65 5 1.0 2.0 0.00 0.00 0.00 78 1010.5
20260507005531 65 142 0.0 1.0 0.00 0.00 0.00 79 1010.6
20260507005031 64 145 1.0 2.0 0.00 0.00 0.00 79 1010.5
20260507004532 64 340 0.0 2.0 0.00 0.00 0.00 79 1010.5
20260507004031 64 327 1.0 3.0 0.00 0.00 0.00 80 1010.5
20260507003534 64 355 2.0 3.0 0.00 0.00 0.00 82 1010.5
20260507003031 64 355 2.0 3.0 0.00 0.00 0.00 83 1010.5
20260507002531 63 355 1.0 3.0 0.00 0.00 0.00 85 1010.6
20260507002031 63 324 1.0 1.0 0.00 0.00 0.00 85 1010.7
20260507001531 63 323 0.0 1.0 0.00 0.00 0.00 85 1010.7
20260507001031 63 323 0.0 1.0 0.00 0.00 0.00 85 1010.8
20260507000531 63 180 0.0 2.0 0.00 0.00 0.00 86 1010.8
20260507000031 63 142 1.0 6.0 0.00 0.00 0.00 86 1010.9
20260506235532 63 172 0.0 2.0 0.00 0.00 0.00 86 1010.9
20260506235031 64 338 0.0 1.0 0.00 0.00 0.00 87 1010.8
20260506234532 64 337 0.0 2.0 0.00 0.00 0.00 86 1010.7
20260506234031 64 340 2.0 3.0 0.00 0.00 0.00 87 1010.8
20260506233531 64 336 1.0 3.0 0.00 0.00 0.00 86 1010.9
20260506233031 64 336 1.0 2.0 0.00 0.00 0.00 86 1011.1
20260506232531 64 331 0.0 1.0 0.00 0.00 0.00 86 1011.2
20260506232031 64 331 0.0 1.0 0.00 0.00 0.00 86 1011.2
20260506231531 64 331 1.0 3.0 0.00 0.00 0.00 87 1011.2
20260506231031 64 332 1.0 5.0 0.00 0.00 0.00 87 1011.2
20260506230534 64 249 3.0 3.0 0.00 0.00 0.00 87 1011.2
20260506230031 64 325 2.0 2.0 0.00 0.00 0.00 87 1011.2
20260506225532 64 322 1.0 2.0 0.00 0.00 0.00 87 1011.1
20260506225031 64 311 0.0 2.0 0.00 0.00 0.00 87 1011.1
20260506224531 64 339 0.0 3.0 0.00 0.00 0.00 87 1011.2
20260506224031 64 336 2.0 3.0 0.00 0.00 0.00 86 1011.2
20260506223531 64 325 0.0 2.0 0.00 0.00 0.00 86 1011.3
20260506223031 64 319 1.0 2.0 0.00 0.00 0.00 86 1011.3
20260506222531 64 336 1.0 2.0 0.00 0.00 0.00 86 1011.3
20260506222031 64 336 0.0 2.0 0.00 0.00 0.00 86 1011.4
20260506221531 64 336 0.0 1.0 0.00 0.00 0.00 86 1011.4
20260506221031 64 336 0.0 1.0 0.00 0.00 0.00 86 1011.3
20260506220534 64 336 0.0 1.0 0.00 0.00 0.00 85 1011.3
20260506220031 64 336 0.0 1.0 0.00 0.00 0.00 85 1011.4
20260506215531 64 336 0.0 0.0 0.00 0.00 0.00 85 1011.4
20260506215035 64 336 0.0 1.0 0.00 0.00 0.00 85 1011.3
20260506214535 64 326 0.0 2.0 0.00 0.00 0.00 85 1011.2
20260506214034 64 265 1.0 1.0 0.00 0.00 0.00 85 1011.2
20260506213531 64 246 0.0 1.0 0.00 0.00 0.00 85 1011.2
20260506213032 64 246 0.0 1.0 0.00 0.00 0.00 85 1011.2
20260506212531 65 246 0.0 0.0 0.00 0.00 0.00 85 1011.1
20260506212031 65 246 0.0 1.0 0.00 0.00 0.00 85 1011.1
20260506211531 65 248 1.0 1.0 0.00 0.00 0.00 85 1011.2
20260506211031 65 249 0.0 1.0 0.00 0.00 0.00 85 1011.2
20260506210534 65 342 0.0 1.0 0.00 0.00 0.00 85 1011.2
20260506210031 65 342 0.0 0.0 0.00 0.00 0.00 85 1011.4
20260506205531 65 342 0.0 1.0 0.00 0.00 0.00 85 1011.5
20260506205031 65 341 0.0 1.0 0.00 0.00 0.00 85 1011.4
20260506204531 65 341 0.0 1.0 0.00 0.00 0.00 85 1011.2
20260506204034 65 342 0.0 3.0 0.00 0.00 0.00 85 1011.3
20260506203532 66 312 0.0 3.0 0.00 0.00 0.00 85 1011.4
20260506203031 66 337 1.0 3.0 0.00 0.00 0.00 85 1011.4
20260506202534 66 331 1.0 3.0 0.00 0.00 0.00 85 1011.3
20260506202031 66 306 1.0 3.0 0.00 0.00 0.00 85 1011.4
20260506201532 66 284 0.0 2.0 0.00 0.00 0.00 85 1011.5
20260506201032 66 323 0.0 2.0 0.00 0.00 0.00 85 1011.5
20260506200535 66 331 0.0 2.0 0.00 0.00 0.00 85 1011.5
20260506200032 66 305 0.0 2.0 0.00 0.00 0.00 84 1011.4
20260506195535 66 299 1.0 3.0 0.00 0.00 0.00 84 1011.4
20260506195032 66 322 1.0 4.0 0.00 0.00 0.00 84 1011.4
20260506194532 66 336 2.0 2.0 0.00 0.00 0.00 84 1011.3
20260506194035 66 310 0.0 1.0 0.00 0.00 0.00 83 1011.3
20260506193533 66 309 0.0 2.0 0.00 0.00 0.00 83 1011.2
20260506193031 66 321 0.0 2.0 0.00 0.00 0.00 83 1011.2
20260506192532 66 325 1.0 2.0 0.00 0.00 0.00 83 1011.2
20260506192036 66 309 0.0 1.0 0.00 0.00 0.00 83 1011.2
20260506191532 66 290 1.0 1.0 0.00 0.00 0.00 83 1011.3
20260506191032 66 273 0.0 2.0 0.00 0.00 0.00 83 1011.2
20260506190532 66 319 1.0 2.0 0.00 0.00 0.00 83 1011.0
20260506190032 66 325 1.0 3.0 0.00 0.00 0.00 83 1011.0
20260506185532 66 322 1.0 2.0 0.00 0.00 0.00 82 1010.9
20260506185031 66 315 0.0 3.0 0.00 0.00 0.00 82 1010.9
20260506184532 66 306 0.0 2.0 0.00 0.00 0.00 82 1010.9
20260506184033 66 306 0.0 2.0 0.00 0.00 0.00 82 1010.9
20260506183532 66 299 0.0 1.0 0.00 0.00 0.00 82 1010.8
20260506183032 66 299 1.0 1.0 0.00 0.00 0.00 82 1010.8
20260506182535 66 299 0.0 1.0 0.00 0.00 0.00 82 1010.8
20260506182032 67 299 0.0 2.0 0.00 0.00 0.00 82 1010.7
20260506181536 67 322 0.0 2.0 0.00 0.00 0.00 82 1010.7
20260506181032 67 329 2.0 2.0 0.00 0.00 0.00 82 1010.6
20260506180532 67 319 1.0 1.0 0.00 0.00 0.00 82 1010.7
20260506180032 67 323 0.0 2.0 0.00 0.00 0.00 81 1010.7
20260506175532 67 276 0.0 2.0 0.00 0.00 0.00 81 1010.7
20260506175032 67 355 0.0 1.0 0.00 0.00 0.00 81 1010.7
20260506174532 67 355 0.0 1.0 0.00 0.00 0.00 81 1010.7
20260506174032 67 355 0.0 1.0 0.00 0.00 0.00 81 1010.7
20260506173532 67 340 0.0 3.0 0.00 0.00 0.00 81 1010.7
20260506173035 67 295 1.0 2.0 0.00 0.00 0.00 81 1010.6
20260506172535 67 355 1.0 3.0 0.00 0.00 0.00 80 1010.6
20260506172033 67 330 0.0 1.0 0.00 0.00 0.00 80 1010.5
20260506171532 67 338 0.0 3.0 0.00 0.00 0.00 79 1010.5
20260506171033 68 300 1.0 3.0 0.00 0.00 0.00 79 1010.6
20260506170532 68 232 0.0 2.0 0.00 0.00 0.00 79 1010.5
20260506170032 68 327 0.0 3.0 0.00 0.00 0.00 79 1010.5
20260506165533 68 344 1.0 1.0 0.00 0.00 0.00 79 1010.5
20260506165032 68 0 1.0 2.0 0.00 0.00 0.00 78 1010.5
20260506164533 68 342 2.0 2.0 0.00 0.00 0.00 77 1010.6
20260506164032 68 324 2.0 2.0 0.00 0.00 0.00 77 1010.7
20260506163532 68 320 1.0 3.0 0.00 0.00 0.00 77 1010.7
20260506163033 68 341 0.0 3.0 0.00 0.00 0.00 78 1010.8
20260506162534 68 329 0.0 2.0 0.00 0.00 0.00 78 1010.8
20260506162033 68 303 1.0 1.0 0.00 0.00 0.00 79 1010.8
20260506161532 68 289 1.0 3.0 0.00 0.00 0.00 79 1010.7
20260506161032 68 355 1.0 3.0 0.00 0.00 0.00 79 1010.7
20260506160532 67 112 1.0 2.0 0.00 0.00 0.00 79 1010.8
20260506160032 68 75 1.0 2.0 0.00 0.00 0.00 79 1010.8
20260506155532 68 38 0.0 2.0 0.00 0.00 0.00 79 1010.7
20260506155032 68 72 2.0 2.0 0.00 0.00 0.00 78 1010.8
20260506154532 68 0 0.0 2.0 0.00 0.00 0.00 78 1010.7
20260506154035 68 5 1.0 2.0 0.00 0.00 0.00 79 1010.7
20260506153532 68 340 2.0 3.0 0.00 0.00 0.00 79 1010.7
20260506153032 68 109 2.0 3.0 0.00 0.00 0.00 79 1010.8
20260506152535 68 92 2.0 3.0 0.00 0.00 0.00 79 1010.7
20260506152033 68 92 1.0 3.0 0.00 0.00 0.00 78 1010.7
20260506151532 68 279 0.0 2.0 0.00 0.00 0.00 79 1010.8
20260506151032 68 355 0.0 2.0 0.00 0.00 0.00 79 1010.9
20260506150535 68 59 0.0 3.0 0.00 0.00 0.00 79 1010.7
20260506150032 68 42 1.0 4.0 0.00 0.00 0.00 79 1010.6
20260506145532 68 118 2.0 4.0 0.00 0.00 0.00 79 1010.7
20260506145032 68 109 2.0 4.0 0.00 0.00 0.00 79 1010.8
20260506144532 68 123 1.0 4.0 0.00 0.00 0.00 79 1010.8
20260506144033 68 110 4.0 5.0 0.00 0.00 0.00 80 1010.6
20260506143533 68 107 3.0 4.0 0.00 0.00 0.00 79 1010.7
20260506143035 68 117 2.0 4.0 0.00 0.00 0.00 79 1010.6
20260506142533 68 126 2.0 4.0 0.00 0.00 0.00 80 1010.6
20260506142033 68 112 1.0 4.0 0.00 0.00 0.00 80 1010.6
20260506141532 68 141 2.0 3.0 0.00 0.00 0.00 80 1010.6
20260506141033 68 92 2.0 4.0 0.00 0.00 0.00 79 1010.5
20260506140532 68 112 2.0 4.0 0.00 0.00 0.00 79 1010.7
20260506140033 68 121 3.0 4.0 0.00 0.00 0.00 79 1010.6
20260506135533 69 107 2.0 3.0 0.00 0.00 0.00 79 1010.7
20260506135032 69 112 1.0 6.0 0.00 0.00 0.00 78 1010.9
20260506134532 68 100 2.0 6.0 0.00 0.00 0.00 79 1010.9
20260506134033 68 119 5.0 6.0 0.00 0.00 0.00 78 1011.0
20260506133534 69 114 2.0 6.0 0.00 0.00 0.00 78 1010.9
20260506133033 69 88 1.0 5.0 0.00 0.00 0.00 78 1011.0
20260506132536 69 94 3.0 6.0 0.00 0.00 0.00 79 1011.2
20260506132033 69 107 3.0 5.0 0.00 0.00 0.00 79 1011.1
20260506131533 69 113 3.0 6.0 0.00 0.00 0.00 78 1011.2
20260506131033 69 96 2.0 5.0 0.00 0.00 0.00 78 1011.2
20260506130533 69 109 4.0 5.0 0.00 0.00 0.00 77 1011.3
20260506130033 69 98 2.0 6.0 0.00 0.00 0.00 78 1011.2
20260506125534 69 142 3.0 7.0 0.00 0.00 0.00 78 1011.3
20260506125032 68 129 6.0 10.0 0.00 0.00 0.00 78 1011.1
20260506124536 69 95 7.0 10.0 0.00 0.00 0.00 77 1011.3
20260506124033 69 136 6.0 8.0 0.00 0.00 0.00 78 1011.3
20260506123533 69 119 3.0 6.0 0.00 0.00 0.00 79 1011.3
20260506123032 68 105 2.0 6.0 0.00 0.00 0.00 79 1011.4
20260506122533 69 153 3.0 6.0 0.00 0.00 0.00 78 1011.4
20260506122034 69 119 1.0 6.0 0.00 0.00 0.00 79 1011.4
20260506121536 69 86 3.0 6.0 0.00 0.00 0.00 79 1011.5
20260506121032 69 97 2.0 7.0 0.00 0.00 0.00 79 1011.5
20260506120532 68 133 6.0 7.0 0.00 0.00 0.00 82 1011.5
20260506120037 68 89 2.0 6.0 0.00 0.00 0.00 81 1011.5
20260506115533 68 110 3.0 5.0 0.00 0.00 0.00 81 1011.6
20260506115032 68 109 2.0 6.0 0.00 0.00 0.00 81 1011.5
20260506114533 67 101 6.0 6.0 0.00 0.00 0.00 81 1011.5